Location: Sungai Laei
(2.6000°N, 113.7167°E)
Time: 17:08:30
(UTC+00:00)

H-2A R/B - Visible Passes

Search period start: 06 October 2022 00:00
Search period end: 16 October 2022 00:00
Orbit: 491 x 536 km, 97.3° (Epoch: 01 April)

Date Brightness Start Highest point End Pass type
(mag) Time Alt. Az. Time Alt. Az. Time Alt. Az.
06 Oct 4.2 20:19:49 10° NE 20:23:13 34° E 20:26:39 10° SSE visible
07 Oct 5.4 20:03:01 10° NE 20:05:39 18° E 20:08:18 10° SE visible
07 Oct 4.5 21:37:45 10° NW 21:39:16 12° WNW 21:40:47 10° WSW visible
08 Oct 3.8 21:18:46 10° NNW 21:21:42 23° WNW 21:24:41 10° SW visible
09 Oct 2.9 21:00:35 10° N 21:04:06 43° W 21:07:42 10° SSW visible
10 Oct 2.5 20:42:47 10° N 20:46:31 90° W 20:50:16 10° S visible
11 Oct 3.8 20:25:21 10° NNE 20:28:54 44° E 20:32:30 10° S visible
12 Oct 5.0 20:08:18 10° NE 20:11:17 23° E 20:14:18 10° SSE visible
13 Oct 5.9 19:52:04 10° ENE 19:53:39 12° E 19:55:15 10° SE visible
13 Oct 4.0 21:24:37 10° NNW 21:27:15 19° WNW 21:29:56 10° SW visible
14 Oct 3.2 21:06:12 10° NNW 21:09:37 35° WNW 21:13:04 10° SW visible
15 Oct 2.5 20:48:14 10° N 20:51:58 71° W 20:55:43 10° SSW visible
